GW3607 Weather Reports


time (UTC)temp
C
wind
direction
speed
KPH
gust
KPH
rain 1hr
cm
rain 24hr
cm
rain mn
cm
humidity
%
barometer
mb
20260505003534 13 43 14.5 32.2 0.00 0.00 0.00 75 1026.7
20260505003039 13 145 14.5 27.4 0.00 0.00 0.00 76 1026.9
20260505002534 12 72 12.9 32.2 0.00 0.00 0.00 77 1026.6
20260505002035 12 30 14.5 38.6 0.00 0.00 0.00 77 1026.6
20260505001542 12 43 14.5 38.6 0.00 0.00 0.00 78 1026.4
20260505001034 12 77 12.9 29.0 0.00 0.00 0.00 80 1026.4
20260505000534 11 88 12.9 25.7 0.00 0.00 0.00 81 1026.5
20260505000049 11 84 11.3 25.7 0.00 0.00 0.00 81 1026.2
20260504235535 11 79 11.3 29.0 0.00 0.00 0.00 82 1026.4
20260504235035 11 105 11.3 29.0 0.00 0.00 0.00 82 1026.2
20260504234552 11 120 11.3 25.7 0.00 0.00 0.00 82 1026.1
20260504234034 11 122 14.5 27.4 0.00 0.00 0.00 82 1026.1
20260504233535 11 79 12.9 27.4 0.00 0.00 0.00 83 1026.1
20260504233049 11 70 12.9 30.6 0.00 0.00 0.00 83 1026.1
20260504232535 11 93 9.7 30.6 0.00 0.00 0.00 83 1026.1
20260504232034 11 102 12.9 24.1 0.00 0.00 0.00 83 1026.0
20260504231543 11 78 11.3 29.0 0.00 0.00 0.00 83 1025.9
20260504231034 11 64 12.9 29.0 0.00 0.00 0.00 83 1025.9
20260504230535 10 105 12.9 27.4 0.00 0.00 0.00 83 1025.7
20260504230044 10 120 12.9 27.4 0.00 0.00 0.00 83 1025.7
20260504225535 10 89 12.9 29.0 0.00 0.00 0.00 83 1025.6
20260504225034 10 109 14.5 29.0 0.00 0.00 0.00 83 1025.5
20260504224542 10 85 12.9 27.4 0.00 0.00 0.00 83 1025.3
20260504224036 10 107 12.9 29.0 0.00 0.00 0.00 83 1025.3
20260504223535 10 101 12.9 29.0 0.00 0.00 0.00 83 1025.2
20260504223043 11 95 16.1 29.0 0.00 0.00 0.00 83 1025.1
20260504222534 11 88 11.3 27.4 0.00 0.00 0.00 83 1025.2
20260504222034 11 77 14.5 25.7 0.00 0.00 0.00 83 1025.1
20260504221542 11 77 12.9 29.0 0.00 0.00 0.00 83 1025.1
20260504221034 11 104 14.5 29.0 0.00 0.00 0.00 83 1025.0
20260504220534 11 58 14.5 29.0 0.00 0.00 0.00 83 1025.0
20260504220056 11 88 14.5 29.0 0.00 0.00 0.00 83 1025.1
20260504215534 11 77 16.1 29.0 0.00 0.00 0.00 83 1025.1
20260504215037 11 96 14.5 30.6 0.00 0.00 0.00 83 1025.1
20260504214547 11 123 12.9 30.6 0.00 0.00 0.00 83 1025.0
20260504214035 11 90 14.5 32.2 0.00 0.00 0.00 83 1025.0
20260504213535 11 104 14.5 32.2 0.00 0.00 0.00 83 1025.0
20260504213101 11 47 9.7 25.7 0.00 0.00 0.00 83 1025.2
20260504212535 11 81 12.9 27.4 0.00 0.00 0.00 83 1025.0
20260504212035 11 87 11.3 27.4 0.00 0.00 0.00 83 1025.1
20260504211544 11 60 11.3 24.1 0.00 0.00 0.00 83 1025.2
20260504211034 11 88 11.3 24.1 0.00 0.00 0.00 82 1025.0
20260504210534 11 102 11.3 24.1 0.00 0.00 0.00 82 1025.2
20260504210043 11 58 11.3 24.1 0.00 0.00 0.00 82 1025.1
20260504205536 11 112 12.9 25.7 0.00 0.00 0.00 82 1025.0
20260504205034 11 129 12.9 25.7 0.00 0.00 0.00 82 1025.2
20260504204545 11 60 11.3 25.7 0.00 0.00 0.00 82 1025.1
20260504204037 11 126 12.9 24.1 0.00 0.00 0.00 82 1025.0
20260504203535 11 80 11.3 24.1 0.00 0.00 0.00 82 1025.1
20260504203047 11 121 11.3 29.0 0.00 0.00 0.00 82 1025.0
20260504202535 11 121 11.3 29.0 0.00 0.00 0.00 82 1025.0
20260504202035 11 69 9.7 22.5 0.00 0.00 0.00 82 1025.0
20260504201544 11 111 11.3 24.1 0.00 0.00 0.00 82 1025.0
20260504201035 11 72 11.3 30.6 0.00 0.00 0.00 82 1025.0
20260504200535 11 104 11.3 30.6 0.00 0.00 0.00 82 1025.0
20260504200053 11 77 8.0 20.9 0.00 0.00 0.00 82 1025.0
20260504195535 11 133 9.7 22.5 0.00 0.00 0.00 82 1025.0
20260504195034 11 99 8.0 22.5 0.00 0.00 0.00 82 1025.0
20260504194556 11 56 9.7 22.5 0.00 0.00 0.00 82 1024.8
20260504194035 11 100 9.7 25.7 0.00 0.00 0.00 82 1025.0
20260504193535 11 96 11.3 25.7 0.00 0.00 0.00 81 1025.0
20260504193103 11 89 12.9 27.4 0.00 0.00 0.00 82 1024.9
20260504192534 11 101 12.9 27.4 0.00 0.00 0.00 81 1024.9
20260504192038 11 112 9.7 25.7 0.00 0.00 0.00 81 1024.8
20260504191549 11 108 9.7 25.7 0.00 0.00 0.00 81 1024.7
20260504191035 11 122 14.5 29.0 0.00 0.00 0.00 81 1024.7
20260504190534 11 109 12.9 29.0 0.00 0.00 0.00 81 1024.8
20260504190049 11 80 11.3 25.7 0.00 0.00 0.00 81 1024.9
20260504185541 11 89 11.3 25.7 0.00 0.00 0.00 81 1024.8
20260504185036 11 103 11.3 25.7 0.00 0.00 0.00 81 1024.9
20260504184551 11 110 11.3 25.7 0.00 0.00 0.00 80 1025.0
20260504184037 12 100 11.3 25.7 0.00 0.00 0.00 80 1025.1
20260504183539 12 89 12.9 27.4 0.00 0.00 0.00 80 1025.0
20260504183057 12 93 12.9 30.6 0.00 0.00 0.00 80 1025.0
20260504182536 12 75 12.9 30.6 0.00 0.00 0.00 80 1025.0
20260504182036 12 120 9.7 24.1 0.00 0.00 0.00 80 1025.0
20260504181551 12 108 11.3 24.1 0.00 0.00 0.00 80 1025.2
20260504181036 12 112 9.7 22.5 0.00 0.00 0.00 80 1025.1
20260504180536 12 145 11.3 27.4 0.00 0.00 0.00 80 1025.2
20260504180130 12 175 11.3 27.4 0.00 0.00 0.00 80 1025.1
20260504175539 12 114 9.7 24.1 0.00 0.00 0.00 80 1025.0
20260504175036 12 102 11.3 22.5 0.00 0.00 0.00 80 1025.1
20260504174550 12 118 11.3 25.7 0.00 0.00 0.00 80 1025.2
20260504174036 12 118 11.3 25.7 0.00 0.00 0.00 80 1025.2
20260504173537 12 92 11.3 27.4 0.00 0.00 0.00 80 1025.2
20260504173050 12 79 11.3 27.4 0.00 0.00 0.00 80 1025.2
20260504172536 12 120 9.7 24.1 0.00 0.00 0.00 80 1025.2
20260504172038 12 129 9.7 24.1 0.00 0.00 0.00 80 1025.2
20260504171552 12 105 9.7 24.1 0.00 0.00 0.00 80 1025.3
20260504171036 12 88 9.7 24.1 0.00 0.00 0.00 79 1025.3
20260504170537 12 87 11.3 24.1 0.00 0.00 0.00 79 1025.3
20260504151036 12 88 6.4 17.7 0.00 0.00 0.00 77 1026.0
20260504150539 12 106 6.4 16.1 0.00 0.00 0.00 76 1026.0
20260504141036 13 137 4.8 17.7 0.00 0.00 0.00 75 1026.0
20260504140536 13 66 4.8 17.7 0.00 0.00 0.00 75 1026.0
20260504130537 14 95 3.2 17.7 0.00 0.00 0.00 73 1026.0
20260504110536 15 129 1.6 8.0 0.00 0.00 0.00 72 1026.2
20260504100536 15 0 0.0 1.6 0.00 0.00 0.00 72 1025.5
20260504100114 16 145 0.0 1.6 0.00 0.00 0.00 72 1025.4
20260504081538 20 206 0.0 6.4 0.00 0.00 0.00 59 1025.2
20260504081035 20 89 0.0 4.8 0.00 0.00 0.00 57 1025.2
20260504080535 21 0 0.0 4.8 0.00 0.00 0.00 58 1025.3
20260504050536 20 0 0.0 4.8 0.00 0.00 0.00 61 1026.0
20260504045535 19 0 1.6 6.4 0.00 0.00 0.00 64 1026.3
20260504045035 18 0 0.0 6.4 0.00 0.00 0.00 63 1026.4
20260504044542 20 202 1.6 11.3 0.00 0.00 0.00 61 1026.3
20260504044038 19 0 1.6 12.9 0.00 0.00 0.00 61 1026.4
20260504043536 18 77 4.8 12.9 0.00 0.00 0.00 61 1026.4
20260504043052 18 0 0.0 11.3 0.00 0.00 0.00 61 1026.5
20260504042535 18 105 3.2 11.3 0.00 0.00 0.00 62 1026.6
20260504042035 19 354 1.6 11.3 0.00 0.00 0.00 61 1026.7
20260504041541 18 335 1.6 11.3 0.00 0.00 0.00 62 1026.8
20260504041035 18 85 3.2 11.3 0.00 0.00 0.00 60 1026.9
20260504040535 19 0 3.2 11.3 0.00 0.00 0.00 62 1027.1
20260504040041 19 360 1.6 11.3 0.00 0.00 0.00 64 1027.1
20260504035536 18 278 3.2 11.3 0.00 0.00 0.00 62 1027.3
20260504035039 18 339 3.2 11.3 0.00 0.00 0.00 64 1027.2
20260504034552 18 68 3.2 11.3 0.00 0.00 0.00 64 1027.3
20260504034036 17 349 0.0 14.5 0.00 0.00 0.00 65 1027.3
20260504033536 18 75 4.8 14.5 0.00 0.00 0.00 63 1027.4
20260504033043 18 16 3.2 11.3 0.00 0.00 0.00 65 1027.6
20260504032536 17 118 3.2 14.5 0.00 0.00 0.00 65 1027.6
20260504032040 18 317 3.2 14.5 0.00 0.00 0.00 66 1027.5
20260504031540 17 152 4.8 14.5 0.00 0.00 0.00 67 1027.6
20260504031035 18 70 1.6 14.5 0.00 0.00 0.00 67 1027.7
20260504030535 17 10 3.2 14.5 0.00 0.00 0.00 67 1027.7
20260504030050 17 25 3.2 16.1 0.00 0.00 0.00 70 1027.6
20260504025536 17 353 1.6 16.1 0.00 0.00 0.00 69 1027.7
20260504025036 17 101 3.2 12.9 0.00 0.00 0.00 70 1027.8
20260504024544 17 40 3.2 12.9 0.00 0.00 0.00 69 1027.8
20260504024036 17 68 4.8 16.1 0.00 0.00 0.00 72 1027.8
20260504023535 16 112 1.6 16.1 0.00 0.00 0.00 72 1027.9
20260504023035 16 65 6.4 16.1 0.00 0.00 0.00 70 1027.8
20260504022536 16 64 6.4 17.7 0.00 0.00 0.00 71 1027.7
20260504022035 16 84 6.4 17.7 0.00 0.00 0.00 72 1027.9
20260504021545 16 69 4.8 19.3 0.00 0.00 0.00 71 1027.7
20260504021035 15 79 8.0 20.9 0.00 0.00 0.00 74 1027.8
20260504020535 15 76 6.4 20.9 0.00 0.00 0.00 75 1027.7
20260504020053 15 67 8.0 24.1 0.00 0.00 0.00 75 1027.8
20260504015536 15 51 12.9 24.1 0.00 0.00 0.00 75 1027.8
20260504015036 15 85 9.7 24.1 0.00 0.00 0.00 75 1027.8
20260504014548 15 180 6.4 24.1 0.00 0.00 0.00 76 1027.8
20260504014035 14 77 9.7 25.7 0.00 0.00 0.00 77 1027.7
20260504013536 14 180 9.7 25.7 0.00 0.00 0.00 77 1027.7
20260504013038 14 75 12.9 22.5 0.00 0.00 0.00 77 1027.7
20260504012535 14 114 12.9 22.5 0.00 0.00 0.00 77 1027.6
20260504012037 13 180 11.3 22.5 0.00 0.00 0.00 78 1027.8
20260504011547 13 70 9.7 20.9 0.00 0.00 0.00 78 1027.6
20260504011035 13 72 9.7 25.7 0.00 0.00 0.00 79 1027.6
20260504010535 13 98 11.3 25.7 0.00 0.00 0.00 79 1027.7
20260504010044 13 72 11.3 25.7 0.00 0.00 0.00 80 1027.6
20260504005536 13 70 9.7 27.4 0.00 0.00 0.00 80 1027.6
20260504005036 13 92 9.7 27.4 0.00 0.00 0.00 81 1027.6
20260504004543 13 89 11.3 25.7 0.00 0.00 0.00 81 1027.6
20260504004036 12 85 11.3 27.4 0.00 0.00 0.00 82 1027.7